Weather History for Valladolid Airport, Spain

Change the Weather History Date:

Saturday, September 28, 2013

  Actual Average Record
Temperature  
Mean Temperature 58 °F -  
Max Temperature 60 °F - - ()
Min Temperature 55 °F - - ()
Degree Days  
Heating Degree Days 8    
Growing Degree Days 8 (Base 50)    
Moisture  
Dew Point 56 °F    
Average Humidity 98    
Maximum Humidity 100    
Minimum Humidity 88    
Precipitation  
Precipitation 0.00 in - - ()
Sea Level Pressure  
Sea Level Pressure 29.75 in    
Wind  
Wind Speed 9 mph ()    
Max Wind Speed 17 mph    
Max Gust Speed -    
Visibility 5.8 miles    
Events Rain , Thunderstorm    
T = Trace of Precipitation, MM = Missing Value Source: Averaged Metar Reports

Daily Weather History Graph

Daily Weather History Graph

Search for Another Location

Airport:

Trip Planner

Search our weather history database for the weather conditions in past years. The results will help you decide how hot, cold, wet, or windy it might be!

Date:

Astronomy

Sep. 28, 2013 Rise Set
Actual Time 8:13 AM CEST 8:06 PM CEST
Civil Twilight 7:45 AM CEST 8:33 PM CEST
Nautical Twilight 7:13 AM CEST 9:06 PM CEST
Astronomical Twilight 6:40 AM CEST 9:38 PM CEST
Moon 1:43 AM CEST 4:19 PM CEST
Length of Visible Light 12h 48m
Length of Day
11h 53m
Last Quarter, 38% of the Moon is Illuminated
Sep 28
Last Quarter
Oct 5
New
Oct 12
First Quarter
Oct 19
Full
Oct 27
Last Quarter

Hourly Weather History & Observations

Time (CEST) Temp. Dew Point Humidity Pressure Visibility Wind Dir Wind Speed Gust Speed Precip Events Conditions
12:00 AM 55.4 °F 53.6 °F 94% 29.83 in 3.7 mi ENE 3.5 mph - N/A Rain , Thunderstorm Rain Showers
12:30 AM 55.4 °F 53.6 °F 94% 29.83 in 6.2 mi NE 8.1 mph - N/A Rain , Thunderstorm Light Rain
7:00 AM 55.4 °F 55.4 °F 100% 29.74 in 3.1 mi South 10.4 mph - N/A Rain Rain
7:30 AM 55.4 °F 55.4 °F 100% 29.74 in 6.2 mi South 8.1 mph - N/A Rain Light Rain
8:00 AM 55.4 °F 55.4 °F 100% 29.74 in 6.2 mi South 9.2 mph - N/A   Mostly Cloudy
8:30 AM 55.4 °F 55.4 °F 100% 29.74 in 6.2 mi South 8.1 mph - N/A   Mostly Cloudy
9:00 AM 55.4 °F 55.4 °F 100% 29.74 in 6.2 mi South 8.1 mph - N/A   Mostly Cloudy
9:30 AM 55.4 °F 55.4 °F 100% 29.74 in 6.2 mi South 9.2 mph - N/A   Mostly Cloudy
10:00 AM 57.2 °F 57.2 °F 100% 29.77 in 6.2 mi SSW 10.4 mph - N/A   Mostly Cloudy
10:30 AM 57.2 °F 57.2 °F 100% 29.77 in 6.2 mi SSW 15.0 mph - N/A Rain Rain
11:00 AM 55.4 °F 55.4 °F 100% 29.74 in 6.2 mi SSW 12.7 mph - N/A Rain Rain
11:30 AM 55.4 °F 55.4 °F 100% 29.74 in 6.2 mi South 11.5 mph - N/A   Mostly Cloudy
12:00 PM 55.4 °F 55.4 °F 100% 29.77 in 6.2 mi South 11.5 mph - N/A   Mostly Cloudy
12:30 PM 55.4 °F 55.4 °F 100% 29.77 in 6.2 mi SSW 12.7 mph - N/A   Mostly Cloudy
1:00 PM 55.4 °F 55.4 °F 100% 29.74 in 6.2 mi SW 15.0 mph - N/A   Mostly Cloudy
1:30 PM 57.2 °F 57.2 °F 100% 29.74 in 6.2 mi SSW 17.3 mph - N/A   Mostly Cloudy
2:00 PM 57.2 °F 55.4 °F 94% 29.77 in 6.2 mi SSW 12.7 mph - N/A   Mostly Cloudy
2:30 PM 55.4 °F 55.4 °F 100% 29.74 in 3.1 mi SSW 11.5 mph - N/A Rain Rain
3:00 PM 55.4 °F 55.4 °F 100% 29.74 in 3.1 mi SW 10.4 mph - N/A Rain Rain
3:30 PM 57.2 °F 57.2 °F 100% 29.74 in 6.2 mi SSW 8.1 mph - N/A   Mostly Cloudy
4:00 PM 57.2 °F 57.2 °F 100% 29.74 in 6.2 mi SSW 10.4 mph - N/A Rain Light Rain
4:30 PM 57.2 °F 55.4 °F 94% 29.74 in 6.2 mi SSW 12.7 mph - N/A Rain Light Rain
5:00 PM 57.2 °F 57.2 °F 100% 29.71 in 6.2 mi SSW 12.7 mph - N/A Rain Light Rain
5:30 PM 57.2 °F 57.2 °F 100% 29.71 in 6.2 mi SSW 15.0 mph - N/A   Mostly Cloudy
6:00 PM 59.0 °F 57.2 °F 94% 29.71 in 6.2 mi SSW 13.8 mph - N/A   Scattered Clouds
6:30 PM 59.0 °F 57.2 °F 94% 29.71 in 6.2 mi SW 15.0 mph - N/A   Mostly Cloudy
7:00 PM 60.8 °F 59.0 °F 94% 29.71 in 6.2 mi SSW 11.5 mph - N/A   Mostly Cloudy
7:30 PM 60.8 °F 57.2 °F 88% 29.71 in 6.2 mi SSW 11.5 mph - N/A   Mostly Cloudy
8:00 PM 59.0 °F 57.2 °F 94% 29.74 in 6.2 mi SSW 11.5 mph - N/A   Mostly Cloudy
8:30 PM 59.0 °F 57.2 °F 94% 29.74 in 6.2 mi SSW 9.2 mph - N/A   Scattered Clouds
9:00 PM 59.0 °F 57.2 °F 94% 29.74 in 6.2 mi SSW 11.5 mph - N/A   Scattered Clouds
9:30 PM 57.2 °F 55.4 °F 94% 29.77 in 6.2 mi WSW 17.3 mph - N/A Rain Light Rain